Flag for Spain Weather past 2 weeks in Sevilla, Spain

Now
50 °F

Clear.


Feels Like: 50 °F
Forecast: 46 / 63 °F
Wind: 1 mph from North

Location: Sevilla / San Pablo

Current Time: Dec 17, 2014 at 9:21:47 PM

Latest Report: Dec 17, 2014 at 8:30 PM


Visibility: 5 mi

Pressure: 30.33 "Hg

Humidity: 94%

Dew point: 48 °F

Location of SevillaLocation

Historic Weather in Sevilla — Graph

°F

Sevilla temperature yesterday

Maximum temperature yesterday: 59 °F (at 3:30 PM)
Minimum temperature yesterday: 46 °F (at 6:00 AM)
Average temperature yesterday: 52 °F

Past Weeks' High & Low Weather Summary

 TemperatureHumidityPressure
High63 °F (Dec 11, 4:00 PM)100% (Dec 3, 4:00 AM)30.51 "Hg (Dec 3, 4:00 AM)
Low37 °F (Dec 9, 6:30 AM)31% (Dec 10, 4:00 PM)29.74 "Hg (Dec 3, 3:00 PM)
Average50 °F83%30.17 "Hg
* Reported Dec 2 8:00 PM — Dec 17 8:00 PM, Sevilla, Weather by CustomWeather, © 2014

Note: Actual official high and low records may vary slightly from our data, if they occured in-between our weather recording intervals... More about our weather records

Advertising

Sevilla weather history for previous 24 hours

 ConditionsComfort  
Time TempWeatherWind HumidityBarometerVisibility
8:00 PM
Dec 17
50 °FPassing clouds.3 mph94%30.33 "Hg5 mi
7:30 PM52 °FPassing clouds.5 mph94%30.33 "Hg5 mi
7:00 PM52 °FPassing clouds.2 mph94%30.33 "HgN/A
6:30 PM52 °FPassing clouds.1 mph94%30.33 "HgN/A
6:00 PM54 °FPassing clouds.2 mph88%30.30 "HgN/A
5:30 PM54 °FPassing clouds.2 mph88%30.30 "HgN/A
5:00 PM54 °FPassing clouds.1 mph88%30.30 "HgN/A
4:30 PM55 °FPassing clouds.2 mph82%30.30 "HgN/A
4:00 PM54 °FPassing clouds.2 mph88%30.30 "HgN/A
3:30 PM54 °FPassing clouds.2 mph88%30.30 "Hg6 mi
3:00 PM54 °FPartly sunny.5 mph88%30.30 "Hg6 mi
2:30 PM52 °FLow clouds.6 mph94%30.30 "Hg6 mi
2:00 PM52 °FLow clouds.3 mph94%30.30 "Hg6 mi
1:30 PM52 °FLow clouds.3 mph94%30.30 "Hg6 mi
1:00 PM52 °FLow clouds.5 mph88%30.33 "Hg6 mi
12:30 PM50 °FPartly sunny.7 mph94%30.33 "Hg6 mi
12:00 PM50 °FLow clouds.8 mph94%30.36 "Hg6 mi
11:30 AM48 °FLow clouds.7 mph100%30.36 "Hg6 mi
11:00 AM48 °FLow clouds.7 mph100%30.33 "Hg4 mi
10:30 AM48 °FFog.8 mph100%30.33 "Hg3 mi
10:00 AM48 °FFog.8 mph100%30.33 "Hg3 mi
9:30 AM48 °FFog.7 mph100%30.30 "Hg2 mi
9:00 AM48 °FFog.5 mph100%30.30 "Hg2 mi
8:30 AM48 °FFog.5 mph100%30.27 "Hg1 mi
8:00 AM48 °FFog.5 mph100%30.27 "Hg1 mi
7:30 AM48 °FFog.3 mph100%30.27 "Hg1 mi
7:00 AM48 °FFog.5 mph100%30.27 "Hg1 mi
6:30 AM48 °FFog.5 mph100%30.24 "Hg1 mi
6:00 AM48 °FFog.3 mph100%30.24 "Hg1 mi
5:30 AM50 °FFog.5 mph94%30.24 "Hg2 mi
5:00 AM50 °FFog.3 mph94%30.24 "Hg2 mi
4:30 AM50 °FFog.3 mph94%30.24 "Hg2 mi
4:00 AM50 °FFog.7 mph94%30.24 "Hg3 mi
3:30 AM50 °FFog.7 mph100%30.24 "Hg3 mi
1:00 AM52 °FPassing clouds.3 mph100%30.24 "Hg4 mi
12:30 AM52 °FFog.3 mph100%30.24 "Hg3 mi
12:00 AM52 °FFog.5 mph100%30.24 "Hg3 mi
11:30 PM
Dec 16
52 °FFog.3 mph100%30.21 "Hg3 mi
11:00 PM52 °FFog.3 mph100%30.21 "Hg3 mi
10:30 PM52 °FFog.2 mph100%30.21 "Hg3 mi
10:00 PM50 °FFog.No wind100%30.21 "Hg3 mi
9:30 PM50 °FOvercast.2 mph100%30.18 "Hg4 mi
9:00 PM50 °FPassing clouds.1 mph100%30.18 "Hg5 mi
Weather by CustomWeather, © 2014

See weather overviewHow to use our weather pages